[[{"header":{"parameterUnit":"m.s-1","parameterCategory":1,"la1":30.2991,"la2":30.254,"lo1":-89.0895,"lo2":-89.0444,"dy":0.0017,"dx":0.0017,"nx":28,"ny":28,"refTime":"2025-12-26T03:00:00:Z","depth":0,"parameterNumber":2,"parameterNumberName":"U-component_of_WINDS"},"data":[0,0,0,0,0,0,0,0,0,0,0,0,0,0,0,0,0,0,0,0,0,0,0,0,0,0,0,0,0,0,0,0,0,0,0,0,0,0,0,0,0,0,0,0,0,0,0,0,0,0,0,0,0,0,0,0,0,0,1.0012,1.0013,0,1.0097,1.0098,1.0099,1.015,1.0151,1.0151,1.0151,1.0239,1.0241,1.0243,0,0,0,0,0,0,0,0,0,0,0,0,0,0.9897,0.9898,1.0012,1.0013,1.0014,1.0097,1.0098,1.0099,1.015,1.0151,1.0151,1.0151,1.0238,1.024,1.0243,0,0,0,0,0,0,0,0,0,0,0,0,0,0.9961,0.9899,1.0012,1.005,1.0054,1.0097,1.0098,1.01,1.015,1.0151,1.0151,1.0151,1.0237,1.024,1.0243,1.0255,0,0,1.0253,1.0254,0,0,0,0,0,0,0,0,0.9957,0.9965,1.0043,1.0047,1.0052,1.0113,1.009,1.0152,1.015,1.0114,1.0151,1.0151,1.0197,1.0203,1.0218,1.0259,1.0263,1.0253,1.0255,1.0256,1.0257,0,0,0,0,0,0,0,0.9952,0.9961,1.0046,1.0044,1.0049,1.0063,1.0073,1.0102,1.0152,1.0117,1.0121,1.013,1.0199,1.0215,1.0221,1.0264,1.0253,1.0256,1.0258,1.0259,1.0324,1.0324,0,0,0,0,0,0,0.9942,0.9957,1.0043,1.0048,1.0004,1.0065,1.0076,1.0093,1.0152,1.0161,1.013,1.0132,1.021,1.0217,1.0224,1.0244,1.0256,1.0259,1.0261,1.0324,1.0324,1.0324,0,0,0,0,0,0,0.9939,0.9949,1.004,1.0004,1.0017,1.0067,1.0086,1.0095,1.0111,1.0162,1.0171,1.0136,1.021,1.022,1.0248,1.0248,1.0261,1.0264,1.0324,1.0324,1.0324,1.0283,0,0,0,0,0,0,0.9936,0.9948,0.9952,1.0004,1.0018,1.0061,1.0086,1.0096,1.0116,1.012,1.0171,1.0179,1.0211,1.0243,1.0251,1.0253,1.0266,1.0325,1.0324,1.0324,1.0285,1.0282,1.0279,0,0,0,0,0,0.9931,0.9936,0.9952,0.9962,1.0024,1.0061,1.0069,1.0106,1.0116,1.0121,1.0155,1.0178,1.0247,1.0245,1.0255,1.0257,1.0325,1.0324,1.0324,1.0286,1.0282,1.0279,0,0,0,0,0,0,0.9882,0.9943,0.9961,0.9983,1.0016,1.0069,1.0077,1.01,1.0131,1.0133,1.0178,1.0189,1.0213,1.0238,1.0236,1.0274,1.0289,1.029,1.0257,1.0254,1.0251,1.0244,1.0269,0,0,0,0,0,0.9874,0.9898,0.995,0.9965,0.9981,1.0026,1.0043,1.0069,1.0105,1.0119,1.0154,1.0189,1.0219,1.0238,1.0268,1.0289,1.0302,1.0296,1.0293,1.0291,1.0291,1.0307,1.0306,1.0323,1.0323,1.0323,0,0,0.9856,0.9893,0.9905,0.9956,0.9984,1.001,1.0037,1.0061,1.0081,1.0123,1.0152,1.018,1.0222,1.0248,1.0261,1.0269,1.029,1.029,1.0287,1.029,1.0307,1.0305,1.0304,1.0322,1.0322,1.0322,0,0,0.9838,0.9868,0.9884,0.9913,0.9957,0.9988,0.9992,1.0042,1.0063,1.0093,1.0126,1.015,1.02,1.023,1.0251,1.0249,1.0272,1.0257,1.0242,1.0257,1.0256,1.0255,1.0256,1.0255,1.0258,1.0258,1.0258,0,0.9811,0.985,0.989,0.9913,0.9936,0.9976,0.9994,1.0021,1.0072,1.0087,1.0096,1.0162,1.0193,1.0227,1.0227,1.0243,1.025,1.0251,1.0253,1.0252,1.0252,1.0253,1.0253,1.0256,1.0256,1.0256,1.0257,0,0.9816,0.9842,0.9851,0.99,0.9924,0.9944,0.9989,1.0008,1.0032,1.0063,1.0095,1.0134,1.0174,1.0185,1.0208,1.0224,1.0228,1.0244,1.026,1.0248,1.025,1.0251,1.0253,1.0254,1.0254,1.0255,0,0,0.9766,0.9841,0.9843,0.9868,0.9921,0.9943,0.9967,1.0007,1.0023,1.0058,1.008,1.0124,1.014,1.0165,1.0192,1.0206,1.0204,1.0221,1.0223,1.0218,1.0226,1.0214,1.0213,1.022,1.0221,1.0221,1.0223,0,0.9757,0.9801,0.984,0.987,0.9897,0.9938,0.9959,0.9995,1.0024,1.0052,1.0086,1.0116,1.0135,1.015,1.0165,1.0201,1.0206,1.0201,1.0243,1.0244,1.0231,1.0214,1.0201,1.0201,1.0224,1.0224,1.0224,0,0.9751,0.9786,0.9819,0.9873,0.9886,0.9904,0.9946,0.9971,1.0014,1.0035,1.0064,1.0094,1.0123,1.0136,1.0178,1.0173,1.0193,1.0214,1.0215,1.022,1.0233,1.022,1.0201,1.0202,1.0226,1.0226,1.0225,0,0.9713,0.9769,0.9797,0.9817,0.9879,0.9892,0.9919,0.9962,0.9984,1.0021,1.0037,1.0076,1.0098,1.0128,1.0169,1.0174,1.0208,1.0223,1.0227,1.0226,1.0232,1.0231,1.0217,1.0243,1.0243,1.0243,1.0243,0,0.9699,0.9718,0.9781,0.9798,0.9822,0.9868,0.989,0.9921,0.996,0.9985,1.0022,1.0045,1.0097,1.0127,1.0159,1.019,1.02,1.0218,1.0227,1.0215,1.0213,1.0228,1.023,1.0243,1.0243,1.0243,1.0243,0,0.966,0.9703,0.9737,0.9795,0.981,0.9825,0.9876,0.9895,0.9928,0.996,0.997,1.0022,1.0059,1.0103,1.0154,1.0176,1.0205,1.0217,1.0191,1.0196,1.0197,1.0197,1.0193,1.0195,1.0219,1.0219,1.0219,0,0.9648,0.9664,0.9725,0.9745,0.9771,0.9802,0.9826,0.9872,0.9896,0.9948,0.9962,1.0002,1.0037,1.0095,1.0138,1.0179,1.0192,1.0188,1.0198,1.0187,1.0194,1.0192,1.0195,1.0185,1.0185,1.0184,1.0184,0,0.9623,0.9644,0.9677,0.9719,0.9747,0.9782,0.9818,0.9832,0.9887,0.9912,0.9951,0.9978,1.0032,1.0072,1.0119,1.0148,1.0175,1.0181,1.0184,1.0172,1.0157,1.0167,1.0184,1.018,1.0181,1.0181,1.0181,1.0181,0.9598,0.9615,0.9661,0.9698,0.9731,0.9765,0.9787,0.9824,0.9858,0.9905,0.9931,0.997,1.0016,1.0081,1.011,1.0142,1.0151,1.0155,1.0157,1.0157,1.0154,1.0152,1.0151,1.0151,1.0151,1.0151,1.0151,0,0.9575,0.9608,0.9641,0.9692,0.9722,0.9746,0.9789,0.9812,0.9846,0.9887,0.9921,0.9968,1.0008,1.0055,1.0099,1.0116,1.013,1.0126,1.0125,1.0132,1.0143,1.0136,1.0114,1.0114,1.0114,1.0114,1.0114,1.0114,0.9567,0.9599,0.9626,0.9675,0.9708,0.9747,0.977,0.9802,0.9835,0.9886,0.992,0.9951,0.9995,1.0043,1.0082,1.0095,1.011,1.0102,1.0119,1.0128,1.0131,1.0134,1.0128,1.0105,1.0105,1.0106,1.0106,1.0105]},{"header":{"parameterUnit":"m.s-1","parameterCategory":1,"la1":30.2991,"la2":30.254,"lo1":-89.0895,"lo2":-89.0444,"dy":0.0017,"dx":0.0017,"nx":28,"ny":28,"refTime":"2025-12-26T03:00:00:Z","depth":0,"parameterNumber":3,"parameterNumberName":"V-component_of_WINDS"},"data":[0,0,0,0,0,0,0,0,0,0,0,0,0,0,0,0,0,0,0,0,0,0,0,0,0,0,0,0,0,0,0,0,0,0,0,0,0,0,0,0,0,0,0,0,0,0,0,0,0,0,0,0,0,0,0,0,0,0,3.0771,3.0772,0,3.0785,3.0785,3.0786,3.0792,3.0792,3.0792,3.0792,3.0805,3.0805,3.0806,0,0,0,0,0,0,0,0,0,0,0,0,0,3.0749,3.075,3.0771,3.0772,3.0772,3.0785,3.0785,3.0786,3.0792,3.0792,3.0792,3.0792,3.0805,3.0805,3.0806,0,0,0,0,0,0,0,0,0,0,0,0,0,3.076,3.075,3.0771,3.0777,3.0777,3.0785,3.0785,3.0786,3.0792,3.0792,3.0792,3.0792,3.0805,3.0805,3.0806,3.0808,0,0,3.0807,3.0807,0,0,0,0,0,0,0,0,3.076,3.0761,3.0776,3.0776,3.0777,3.0787,3.0782,3.0793,3.0792,3.0787,3.0792,3.0792,3.0799,3.08,3.0802,3.0809,3.081,3.0807,3.0807,3.0808,3.0808,0,0,0,0,0,0,0,3.0759,3.0761,3.0777,3.0776,3.0777,3.0778,3.078,3.0784,3.0792,3.0787,3.0788,3.0789,3.0799,3.0802,3.0803,3.081,3.0807,3.0808,3.0808,3.0808,3.0819,3.0819,0,0,0,0,0,0,3.0758,3.076,3.0776,3.0777,3.0768,3.0778,3.078,3.0784,3.0793,3.0794,3.0789,3.079,3.0801,3.0802,3.0803,3.0807,3.0808,3.0808,3.0808,3.0819,3.0819,3.0819,0,0,0,0,0,0,3.0757,3.0759,3.0776,3.0769,3.0771,3.0779,3.0783,3.0784,3.0787,3.0794,3.0795,3.0791,3.0801,3.0803,3.0807,3.0808,3.0808,3.0809,3.0819,3.0819,3.0819,3.0815,0,0,0,0,0,0,3.0756,3.0759,3.076,3.0769,3.0771,3.078,3.0783,3.0784,3.0788,3.0788,3.0796,3.0797,3.0801,3.0806,3.0808,3.0808,3.0809,3.0819,3.0819,3.0819,3.0815,3.0815,3.0815,0,0,0,0,0,3.0756,3.0758,3.076,3.0762,3.0774,3.078,3.0782,3.0787,3.0788,3.0789,3.0794,3.0797,3.0807,3.0807,3.0808,3.0809,3.0819,3.0819,3.0819,3.0815,3.0815,3.0815,0,0,0,0,0,0,3.0749,3.0759,3.0762,3.0767,3.0773,3.0781,3.0783,3.0786,3.0791,3.0791,3.0797,3.0799,3.0803,3.0807,3.0806,3.0812,3.0814,3.0814,3.081,3.081,3.081,3.0809,3.081,0,0,0,0,0,3.0748,3.0753,3.0762,3.0766,3.0768,3.0775,3.0778,3.0782,3.0788,3.079,3.0795,3.08,3.0804,3.0807,3.0812,3.0816,3.0817,3.0817,3.0817,3.0816,3.0817,3.0819,3.0819,3.082,3.082,3.082,0,0,3.0746,3.0753,3.0755,3.0764,3.0769,3.0774,3.0777,3.0782,3.0785,3.079,3.0796,3.0799,3.0805,3.081,3.0812,3.0813,3.0817,3.0816,3.0816,3.0817,3.0819,3.0819,3.0819,3.082,3.082,3.082,0,0,3.0745,3.0751,3.0755,3.076,3.0767,3.0772,3.0773,3.0781,3.0784,3.0789,3.0793,3.0797,3.0804,3.0808,3.0812,3.0813,3.0815,3.0814,3.0812,3.0815,3.0815,3.0815,3.0815,3.0815,3.0814,3.0814,3.0814,0,3.0742,3.075,3.0756,3.0761,3.0765,3.077,3.0774,3.0778,3.0786,3.0789,3.079,3.08,3.0804,3.0809,3.081,3.0812,3.0813,3.0813,3.0814,3.0814,3.0814,3.0815,3.0815,3.0814,3.0814,3.0814,3.0814,0,3.0745,3.0751,3.0753,3.0762,3.0766,3.077,3.0776,3.0779,3.0783,3.0787,3.0792,3.0798,3.0804,3.0805,3.0808,3.0811,3.0811,3.0813,3.0815,3.0814,3.0814,3.0815,3.0813,3.0813,3.0814,3.0814,0,0,3.0741,3.0753,3.0754,3.0758,3.0766,3.077,3.0775,3.0781,3.0784,3.0789,3.0792,3.0799,3.0801,3.0804,3.0808,3.081,3.081,3.0811,3.0811,3.0811,3.0814,3.0812,3.0812,3.0812,3.0812,3.0812,3.0813,0,3.0741,3.075,3.0756,3.0762,3.0767,3.0772,3.0776,3.0781,3.0786,3.079,3.0794,3.0799,3.0801,3.0803,3.0805,3.081,3.0811,3.081,3.0815,3.0815,3.0814,3.0813,3.0811,3.0812,3.0813,3.0813,3.0813,0,3.0743,3.0749,3.0756,3.0764,3.0766,3.077,3.0776,3.078,3.0786,3.0789,3.0793,3.0797,3.0801,3.0802,3.0808,3.0807,3.081,3.0812,3.0813,3.0813,3.0814,3.0813,3.0812,3.0813,3.0814,3.0814,3.0814,0,3.0739,3.0749,3.0754,3.0757,3.0767,3.0769,3.0773,3.078,3.0783,3.0788,3.0791,3.0796,3.0799,3.0803,3.0808,3.0808,3.0813,3.0815,3.0816,3.0815,3.0816,3.0816,3.0816,3.0818,3.0818,3.0818,3.0818,0,3.0739,3.0743,3.0752,3.0756,3.076,3.0767,3.0771,3.0775,3.0781,3.0785,3.079,3.0793,3.0799,3.0803,3.0807,3.0811,3.0813,3.0815,3.0816,3.0815,3.0814,3.0816,3.0816,3.0818,3.0818,3.0818,3.0818,0,3.0735,3.0742,3.0748,3.0757,3.0759,3.0762,3.077,3.0773,3.0778,3.0782,3.0784,3.0791,3.0796,3.0801,3.0808,3.0811,3.0815,3.0816,3.0813,3.0813,3.0814,3.0814,3.0815,3.0815,3.0817,3.0817,3.0817,0,3.0735,3.0738,3.0748,3.0751,3.0755,3.076,3.0764,3.0771,3.0774,3.0782,3.0784,3.0789,3.0794,3.0802,3.0807,3.0812,3.0814,3.0814,3.0815,3.0813,3.0814,3.0814,3.0814,3.0814,3.0814,3.0813,3.0813,0,3.0733,3.0737,3.0742,3.0749,3.0754,3.0759,3.0765,3.0767,3.0774,3.0778,3.0784,3.0788,3.0795,3.08,3.0806,3.081,3.0813,3.0813,3.0814,3.0812,3.0811,3.0812,3.0812,3.0813,3.0813,3.0813,3.0813,3.0813,3.0731,3.0735,3.0742,3.0748,3.0753,3.0758,3.0762,3.0767,3.0772,3.0779,3.0782,3.0788,3.0794,3.0802,3.0806,3.081,3.0811,3.0811,3.0812,3.0812,3.0811,3.081,3.0811,3.0811,3.0811,3.0811,3.0811,0,3.073,3.0735,3.0741,3.0749,3.0754,3.0757,3.0764,3.0767,3.0772,3.0778,3.0783,3.0789,3.0794,3.08,3.0806,3.0808,3.0809,3.0809,3.0809,3.081,3.081,3.0809,3.0808,3.0808,3.0808,3.0808,3.0808,3.0808,3.073,3.0736,3.074,3.0749,3.0754,3.076,3.0763,3.0768,3.0772,3.078,3.0784,3.0788,3.0794,3.08,3.0805,3.0806,3.0808,3.0807,3.0809,3.081,3.081,3.081,3.0809,3.0808,3.0808,3.0809,3.0809,3.0809]}]]